Punta Gorda, FL

10:57 AM EDT on July 22, 2017 (GMT -0400)
Charlotte County

Weather History for KPGD - May, 2013

Change the Weather History Date:

Saturday, May 25, 2013

  Actual Average Record
Temperature  
Mean Temperature 78 °F -  
Max Temperature 91 °F 87 °F 96 °F (2012)
Min Temperature 66 °F 65 °F 60 °F (2002)
Cooling Degree Days 14    
Growing Degree Days 28 (Base 50)    
Moisture  
Dew Point 65 °F    
Average Humidity 67    
Maximum Humidity 94    
Minimum Humidity 38    
Precipitation  
Precipitation 0.00 in - - ()
Sea Level Pressure  
Sea Level Pressure 30.13 in    
Wind  
Wind Speed 7 mph (East)    
Max Wind Speed 16 mph    
Max Gust Speed 22 mph    
Visibility 10 miles    
Events      
Averages and records for this station are not official NWS values.
T = Trace of Precipitation, MM = Missing Value Source: NWS Daily Summary

Daily Weather History Graph

Daily Weather History Graph

Search for Another Location

Airport or City:

Trip Planner

Search our weather history database for the weather conditions in past years. The results will help you decide how hot, cold, wet, or windy it might be!

Date:

Astronomy

May. 25, 2013 Rise Set
Actual Time 6:35 AM EDT 8:14 PM EDT
Civil Twilight 6:10 AM EDT 8:40 PM EDT
Nautical Twilight 5:39 AM EDT 9:10 PM EDT
Astronomical Twilight 5:06 AM EDT 9:43 PM EDT
Moon 9:01 PM EDT (5/25) 6:59 AM EDT (5/25)
Length of Visible Light 14h 29m
Length of Day
13h 38m
Full, 100% of the Moon is Illuminated
May 25
Full
May 31
Last Quarter
Jun 8
New
Jun 16
First Quarter
Jun 23
Full

Hourly Weather History & Observations

Time (EDT) Temp. Heat Index Dew Point Humidity Pressure Visibility Wind Dir Wind Speed Gust Speed Precip Events Conditions
12:53 AM 69.1 °F - 66.0 °F 90% 30.11 in 10.0 mi ENE 5.8 mph - N/A   Clear
1:53 AM 71.1 °F - 66.0 °F 84% 30.09 in 10.0 mi Calm Calm - N/A   Clear
2:53 AM 72.0 °F - 66.9 °F 84% 30.08 in 10.0 mi West 3.5 mph - N/A   Clear
3:53 AM 70.0 °F - 66.0 °F 87% 30.07 in 10.0 mi Calm Calm - N/A   Clear
4:53 AM 66.9 °F - 64.9 °F 93% 30.08 in 10.0 mi NE 4.6 mph - N/A   Clear
5:31 AM 66.2 °F - 64.4 °F 94% 30.07 in 10.0 mi ENE 4.6 mph - N/A   Scattered Clouds
5:53 AM 66.0 °F - 64.0 °F 93% 30.08 in 9.0 mi East 3.5 mph - N/A   Partly Cloudy
6:53 AM 66.9 °F - 64.9 °F 93% 30.11 in 8.0 mi East 5.8 mph - N/A   Scattered Clouds
7:53 AM 71.1 °F - 68.0 °F 90% 30.13 in 10.0 mi East 6.9 mph - N/A   Clear
8:53 AM 78.1 °F - 69.1 °F 74% 30.15 in 10.0 mi East 10.4 mph - N/A   Clear
9:53 AM 82.9 °F 85.8 °F 68.0 °F 60% 30.16 in 10.0 mi East 12.7 mph - N/A   Clear
10:53 AM 84.9 °F 87.6 °F 66.9 °F 55% 30.17 in 10.0 mi East 12.7 mph - N/A   Partly Cloudy
11:53 AM 87.1 °F 89.9 °F 66.9 °F 51% 30.18 in 10.0 mi ESE 13.8 mph - N/A   Scattered Clouds
12:53 PM 88.0 °F 90.7 °F 66.9 °F 49% 30.18 in 10.0 mi ENE 13.8 mph - N/A   Scattered Clouds
1:53 PM 90.0 °F 91.7 °F 64.9 °F 43% 30.16 in 10.0 mi East 9.2 mph 16.1 mph N/A   Partly Cloudy
2:53 PM 87.1 °F 87.8 °F 63.0 °F 44% 30.14 in 10.0 mi East 9.2 mph - N/A   Scattered Clouds
3:53 PM 91.0 °F 91.9 °F 63.0 °F 39% 30.12 in 10.0 mi NE 11.5 mph 18.4 mph N/A   Partly Cloudy
4:53 PM 89.1 °F 89.3 °F 62.1 °F 40% 30.11 in 10.0 mi East 16.1 mph 21.9 mph N/A   Clear
5:53 PM 89.1 °F 88.8 °F 60.1 °F 38% 30.11 in 10.0 mi ENE 12.7 mph - N/A   Scattered Clouds
6:53 PM 87.1 °F 87.0 °F 61.0 °F 41% 30.11 in 10.0 mi East 12.7 mph - N/A   Partly Cloudy
7:53 PM 82.9 °F 83.7 °F 62.1 °F 49% 30.12 in 10.0 mi East 9.2 mph - N/A   Clear
8:53 PM 80.1 °F 82.1 °F 66.0 °F 62% 30.15 in 10.0 mi East 11.5 mph - N/A   Overcast
9:53 PM 75.9 °F - 64.9 °F 69% 30.17 in 10.0 mi East 8.1 mph - N/A   Clear
10:53 PM 75.0 °F - 64.0 °F 69% 30.19 in 10.0 mi East 10.4 mph - N/A   Clear
11:53 PM 73.0 °F - 64.0 °F 73% 30.19 in 10.0 mi East 9.2 mph - N/A   Clear